English version Home page |
Updated on June 11, 2016 |
プロフィール
|
軌道要素Epoch 2001 Apr. 1.0 TT = JDT 2452000.5 T 2001 Mar. 21.78749 TT Marsden q 2.7688341 (2000.0) P Q z +0.0020435 Peri. 326.81047 -0.88705792 -0.46116464 +/-0.0000106 Node 185.84928 +0.45589549 -0.86776769 e 0.9943419 Incl. 12.08739 +0.07271558 -0.18521991
|
星図
|
光度変化m1 = 11.0 + 5 logΔ + 10.0 log r
|
軌道要素は Dr. Brian G. Marsden の計算によるもので、
M.P.E.C. 2001-D21
に掲載されたものです。
|